Date String (YYYY-MM-DD hh:mm:ss) UTC,Instrument flags,Ambient pressure (hPa),Sample flow (lpm),Bypass flow (lpm),Sample temperature (°C),Ambient temperature (°C),ASC tube jacket temperature (°C),LED temperature (°C),Box temperature (°C),Sample RH (%),Span deviation,Mass concentration (μg/m³),Mass concentration (μg/m³),Mass concentration (μg/m³)
DateTimeUTC,F1_M11,P_M11,Q1_M11,Q2_M11,T1_M11,T2_M11,T3_M11,T4_M11,T5_M11,U1_M11,ZSPAN_M11,X0_M11,X2_M11,X1_M11
2022-09-27 06:00:00,,0833.6,5.02,0.00,30.3,28.9,00.0,39.0,32.1,14.8,0000.0,0011.31,0004.37,0003.77
2022-09-27 06:01:00,,0833.6,4.99,0.00,30.3,28.9,00.0,39.0,32.1,14.7,0000.0,0011.67,0004.41,0003.77
2022-09-27 06:02:00,,0833.6,4.99,0.00,30.3,28.9,00.0,39.0,32.2,14.7,0000.0,0011.70,0004.38,0003.78
2022-09-27 06:03:00,,0833.6,5.00,0.00,30.3,28.9,00.0,39.0,32.2,14.7,0000.0,0012.13,0004.35,0003.77
2022-09-27 06:04:00,,0833.6,4.99,0.00,30.4,28.9,00.0,39.0,32.2,14.7,0000.0,0012.32,0004.33,0003.76
2022-09-27 06:05:00,,0833.6,5.01,0.00,30.4,28.9,00.0,39.0,32.2,14.6,0000.0,0012.86,0004.32,0003.76
2022-09-27 06:06:00,,0833.6,4.99,0.00,30.4,28.9,00.0,39.0,32.2,14.7,0000.0,0013.80,0004.35,0003.76
2022-09-27 06:07:00,,0833.5,5.01,0.00,30.4,28.9,00.0,39.1,32.2,14.6,0000.0,0013.99,0004.36,0003.76
2022-09-27 06:08:00,,0833.5,5.00,0.00,30.4,29.0,00.0,39.1,32.2,14.7,0000.0,0013.41,0004.33,0003.76
2022-09-27 06:09:00,,0833.5,5.00,0.00,30.4,29.0,00.0,39.1,32.3,14.7,0000.0,0013.61,0004.33,0003.76
2022-09-27 06:10:00,,0833.6,5.00,0.00,30.4,29.0,00.0,39.1,32.2,14.7,0000.0,0013.55,0004.31,0003.76
2022-09-27 06:11:00,,0833.5,5.01,0.00,30.4,29.0,00.0,39.1,32.2,14.7,0000.0,0012.64,0004.29,0003.77
2022-09-27 06:12:00,,0833.5,4.99,0.00,30.4,29.0,00.0,39.1,32.2,14.6,0000.0,0012.35,0004.25,0003.77
2022-09-27 06:13:00,,0833.5,5.01,0.00,30.4,29.0,00.0,39.1,32.3,14.6,0000.0,0011.98,0004.28,0003.77
2022-09-27 06:14:00,,0833.4,4.99,0.00,30.4,29.0,00.0,39.1,32.3,14.7,0000.0,0011.34,0004.29,0003.78
2022-09-27 06:15:00,,0833.5,5.01,0.00,30.4,29.0,00.0,39.1,32.3,14.7,0000.0,0010.81,0004.29,0003.79
2022-09-27 06:16:00,,0833.4,5.00,0.00,30.5,29.0,00.0,39.1,32.3,14.6,0000.0,0009.93,0004.29,0003.78
2022-09-27 06:17:00,,0833.5,5.01,0.00,30.5,29.0,00.0,39.1,32.3,14.5,0000.0,0009.01,0004.26,0003.77
2022-09-27 06:18:00,,0833.4,4.99,0.00,30.5,29.0,00.0,39.2,32.3,14.6,0000.0,0008.56,0004.25,0003.76
2022-09-27 06:19:00,,0833.4,5.01,0.00,30.5,29.0,00.0,39.2,32.3,14.6,0000.0,0008.40,0004.26,0003.76
2022-09-27 06:20:00,,0833.5,4.99,0.00,30.5,29.0,00.0,39.2,32.3,14.5,0000.0,0008.33,0004.28,0003.76
2022-09-27 06:21:00,,0833.5,5.01,0.00,30.5,29.1,00.0,39.2,32.3,14.4,0000.0,0008.87,0004.31,0003.77
2022-09-27 06:22:00,,0833.5,4.99,0.00,30.5,29.1,00.0,39.2,32.3,14.4,0000.0,0009.17,0004.32,0003.76
2022-09-27 06:23:00,,0833.5,5.01,0.00,30.5,29.1,00.0,39.2,32.3,14.4,0000.0,0009.51,0004.35,0003.74
2022-09-27 06:24:00,,0833.4,4.99,0.00,30.5,29.1,00.0,39.2,32.4,14.5,0000.0,0010.05,0004.34,0003.73
2022-09-27 06:25:00,,0833.4,5.00,0.00,30.5,29.1,00.0,39.2,32.3,14.4,0000.0,0010.65,0004.36,0003.71
2022-09-27 06:26:00,,0833.5,5.01,0.00,30.5,29.1,00.0,39.2,32.3,14.4,0000.0,0010.90,0004.33,0003.69
2022-09-27 06:27:00,,0833.4,4.99,0.00,30.5,29.1,00.0,39.2,32.4,14.4,0000.0,0010.87,0004.30,0003.67
2022-09-27 06:28:00,,0833.5,5.01,0.00,30.5,29.1,00.0,39.2,32.4,14.3,0000.0,0010.91,0004.32,0003.66
2022-09-27 06:29:00,,0833.5,4.99,0.00,30.5,29.1,00.0,39.2,32.4,14.3,0000.0,0011.61,0004.32,0003.64
2022-09-27 06:30:00,,0833.5,5.01,0.00,30.5,29.1,00.0,39.3,32.4,14.5,0000.0,0011.51,0004.27,0003.61
2022-09-27 06:31:00,,0833.4,5.00,0.00,30.5,29.1,00.0,39.3,32.4,14.3,0000.0,0011.43,0004.22,0003.59
2022-09-27 06:32:00,,0833.4,5.00,0.00,30.6,29.1,00.0,39.3,32.4,14.3,0000.0,0011.15,0004.23,0003.56
2022-09-27 06:33:00,,0833.4,5.01,0.00,30.6,29.1,00.0,39.3,32.4,14.3,0000.0,0011.51,0004.20,0003.55
2022-09-27 06:34:00,,0833.4,4.99,0.00,30.6,29.1,00.0,39.3,32.4,14.4,0000.0,0011.21,0004.14,0003.56
2022-09-27 06:35:00,,0833.4,5.01,0.00,30.6,29.1,00.0,39.3,32.4,14.6,0000.0,0011.00,0004.13,0003.55
2022-09-27 06:36:00,,0833.4,4.99,0.00,30.6,29.1,00.0,39.3,32.4,14.4,0000.0,0010.70,0004.11,0003.55
2022-09-27 06:37:00,,0833.4,5.01,0.00,30.6,29.1,00.0,39.3,32.4,14.4,0000.0,0010.58,0004.13,0003.55
2022-09-27 06:38:00,,0833.4,4.99,0.00,30.6,29.1,00.0,39.3,32.4,14.4,0000.0,0010.80,0004.16,0003.55
2022-09-27 06:39:00,,0833.4,5.00,0.00,30.6,29.1,00.0,39.3,32.4,14.4,0000.0,0010.69,0004.13,0003.54
2022-09-27 06:40:00,,0833.4,5.00,0.00,30.6,29.1,00.0,39.3,32.4,14.4,0000.0,0010.12,0004.11,0003.54
2022-09-27 06:41:00,,0833.4,5.01,0.00,30.6,29.1,00.0,39.3,32.4,14.3,0000.0,0010.17,0004.16,0003.54
2022-09-27 06:42:00,,0833.4,5.00,0.00,30.6,29.1,00.0,39.3,32.4,14.3,0000.0,0010.06,0004.17,0003.54
2022-09-27 06:43:00,,0833.4,4.99,0.00,30.6,29.1,00.0,39.3,32.4,14.4,0000.0,0009.56,0004.12,0003.54
2022-09-27 06:44:00,,0833.4,5.00,0.00,30.6,29.1,00.0,39.3,32.4,14.4,0000.0,0009.41,0004.14,0003.53
2022-09-27 06:45:00,,0833.4,4.99,0.00,30.6,29.1,00.0,39.3,32.3,14.4,0000.0,0009.50,0004.14,0003.52
2022-09-27 06:46:00,,0833.4,5.00,0.00,30.6,29.1,00.0,39.3,32.4,14.4,0000.0,0009.61,0004.13,0003.51
2022-09-27 06:47:00,,0833.4,4.99,0.00,30.6,29.1,00.0,39.3,32.4,14.4,0000.0,0009.26,0004.13,0003.51
2022-09-27 06:48:00,,0833.4,5.01,0.00,30.6,29.1,00.0,39.4,32.4,14.4,0000.0,0008.80,0004.10,0003.50
2022-09-27 06:49:00,,0833.4,5.00,0.00,30.6,29.1,00.0,39.4,32.4,14.4,0000.0,0008.74,0004.07,0003.50
2022-09-27 06:50:00,,0833.4,5.00,0.00,30.6,29.1,00.0,39.4,32.4,14.4,0000.0,0008.80,0004.11,0003.52
2022-09-27 06:51:00,,0833.4,5.00,0.00,30.6,29.1,00.0,39.4,32.4,14.3,0000.0,0008.66,0004.12,0003.53
2022-09-27 06:52:00,,0833.4,4.98,0.00,30.6,29.1,00.0,39.4,32.4,14.3,0000.0,0008.55,0004.08,0003.53
2022-09-27 06:53:00,,0833.4,5.02,0.00,30.6,29.1,00.0,39.4,32.4,14.4,0000.0,0008.55,0004.07,0003.51
2022-09-27 06:54:00,,0833.4,4.99,0.00,30.6,29.1,00.0,39.4,32.4,14.3,0000.0,0008.54,0004.07,0003.52
2022-09-27 06:55:00,,0833.4,5.01,0.00,30.6,29.1,00.0,39.4,32.4,14.3,0000.0,0007.94,0004.05,0003.53
2022-09-27 06:56:00,,0833.4,4.99,0.00,30.6,29.2,00.0,39.4,32.4,14.3,0000.0,0007.89,0004.02,0003.53
2022-09-27 06:57:00,,0833.4,5.01,0.00,30.6,29.2,00.0,39.4,32.5,14.2,0000.0,0007.82,0004.03,0003.54
2022-09-27 06:58:00,,0833.4,4.99,0.00,30.6,29.2,00.0,39.4,32.5,14.2,0000.0,0008.22,0004.02,0003.54
2022-09-27 06:59:00,,0833.5,5.01,0.00,30.7,29.2,00.0,39.4,32.4,14.3,0000.0,0008.27,0004.03,0003.55
